Location: Camp Crooked Creek
(37.9149°N, 85.6607°W)
Time: 17:15:00
(UTC-04:00)

Lacrosse 4 - Visible Passes

Search period start: 19 April 2015 00:00
Search period end: 29 April 2015 00:00
Orbit: 673 x 680 km, 68.0° (Epoch: 25 February)

Date Brightness Start Highest point End Pass type
(mag) Time Alt. Az. Time Alt. Az. Time Alt. Az.
19 Apr 4.8 01:28:53 10° N 01:29:19 12° N 01:29:19 12° N visible
21 Apr 4.6 00:59:07 10° N 00:59:53 13° N 00:59:53 13° N visible
22 Apr 4.7 01:33:57 10° NNW 01:34:22 12° NNW 01:34:22 12° NNW visible
23 Apr 4.4 00:29:20 10° N 00:30:34 16° N 00:30:34 16° N visible
24 Apr 4.4 01:04:09 10° NNW 01:05:06 16° NNW 01:05:06 16° NNW visible
24 Apr 4.1 23:59:32 10° N 00:01:21 18° NNE 00:01:21 18° NNE visible
26 Apr 4.1 00:34:20 10° NNW 00:35:56 21° NNW 00:35:56 21° NNW visible
26 Apr 3.7 23:29:45 10° N 23:32:15 21° NNE 23:32:15 21° NNE visible
27 Apr 4.5 01:10:01 10° NW 01:10:33 13° NW 01:10:33 13° NW visible
28 Apr 3.5 00:04:31 10° NNW 00:06:53 29° NNW 00:06:53 29° NNW visible
28 Apr 3.4 22:59:58 10° N 23:03:14 22° NE 23:03:14 22° NE visible
